269  
ASUS44 KHUN 280110  
RWRHUN  
 
WEATHER ROUNDUP FOR THE TENNESSEE VALLEY  
NATIONAL WEATHER SERVICE HUNTSVILLE AL  
800 PM CDT SUN MAY 27 2018  
 
ALZ001>004-280200-  
NORTHWEST ALABAMA  
 
CITY SKY/WX TMP DP RH WIND PRES REMARKS
 
COURTLAND HCN N/A 77 N/A N/A N5 N/A  
RUSSELLVILLE N/A 72 N/A N/A MISG N/A  
SHOALS AIRPORT MOCLDY 75 71 87 W3 29.91S  
SHOALS TVA RES N/A 73 N/A N/A MISG N/A  

 
 
ALZ005>007-016-280200-  
NORTH CENTRAL ALABAMA  
 
CITY SKY/WX TMP DP RH WIND PRES REMARKS
 
CULLMAN AG STN N/A 72 N/A N/A CALM N/A  
DECATUR AP CLOUDY 75 65 70 SE13 29.93R  
HUNTSVILLE AP HVY RAIN 71 70 96 NE8 29.93R FOG  
MERIDIANVILLE CLOUDY 69 67 92 S3 29.94R THUNDER  
REDSTONE ARSN TSTM 69 67 94 NW6 29.92R FOG  
VINEMONT AP N/A 69 67 92 CALM 29.94S  

 
 
ALZ008>010-280200-  
NORTHEAST ALABAMA  
 
CITY SKY/WX TMP DP RH WIND PRES REMARKS
 
FORT PAYNE FAIR 73 70 88 CALM 29.90S  
SCOTTSBORO AP MOCLDY 73 72 94 CALM 29.91R  
SCOTTSBORO HCN N/A 72 N/A N/A MISG N/A  
VALLEY HEAD N/A 73 N/A N/A MISG N/A  

 
 
TNZ076-096-097-280200-  
SOUTHEASTERN MIDDLE TENNESSEE  
 
CITY SKY/WX TMP DP RH WIND PRES REMARKS
 
TULLAHOMA PTCLDY 77 72 83 CALM 29.92S  
WINCHESTER PTCLDY 75 68 78 S7 29.93R  

 
   
..SURROUNDING SITES
 
 
 
CITY SKY/WX TMP DP RH WIND PRES REMARKS
 
ATLANTA CLOUDY 76 65 68 E12 29.92R  
ANNISTON FAIR 72 70 93 CALM 29.88R  
BIRMINGHAM TSTM 71 69 93 NE12G21 29.92R FOG  
CHATTANOOGA MOCLDY 81 68 64 SE3 29.91R  
CORINTH N/A 73 72 94 CALM 29.89S  
DALTON MOCLDY 75 72 88 CALM 29.94R  
GADSDEN FAIR 77 74 90 NE3 29.89R  
GOLDEN TRNGL FAIR 81 72 74 NE3 29.85R  
HALEYVILLE N/A N/A N/A N/A MISG N/A  
JACKSON TN FAIR 77 70 79 CALM 29.88S  
MEMPHIS FAIR 78 73 84 SE6 29.86F  
NASHVILLE CLOUDY 77 67 71 S3 29.91F  
ROME FAIR 75 72 90 N5 29.90R  
SAVANNAH CLEAR 72 72 100 CALM 29.89F  
SELMER CLEAR 72 70 94 SW3 29.89S  
TUPELO FAIR 83 65 54 N7 29.87S  
TUSCALOOSA FAIR 81 74 79 N6 29.84R  

 
   
..GULF COAST WEATHER
 
 
 
CITY SKY/WX TMP DP RH WIND PRES REMARKS
 
GULFPORT FAIR 84 68 58 N6 29.75R  
PASCAGOULA LGT RAIN 77 66 68 MISG 29.77R  
MOBILE MOCLDY 76 74 93 N5 29.78S  
GULF SHORES FAIR 79 67 66 NE9 29.75R  
PENSACOLA MOCLDY 81 66 60 NE18G26 29.73  
DESTIN LGT RAIN 75 71 87 NE16 29.73R  
PANAMA CITY MOCLDY 73 72 97 NE7G18 29.71S  
APPALACHICOLA CLOUDY 74 74 100 NE12 29.69S  

 
 
 
 
CLICK HERE TO GO TO PREVIOUS BULLETINS.

The Nexlab AL Page
The Nexlab TN Page Main Text Page